Vorticity
23 14 14 18 21 18 15 12 11 12 10 10 11 7 16 24 8 17 20 24 16 12 13 14 12 11 7 10 20 14 11 6 10 9 9 7 8 8 8 7 7 9 7
18 13 18 21 19 15 14 10 12 10 8 9 10 11 14 11 19 12 10 22 22 20 17 18 11 15 13 9 11 17 20 3 -8 8 11 11 11 6 7 6 6 5 11
15 16 20 18 16 14 12 11 14 10 6 3 4 6 7 11 14 11 16 11 15 15 18 21 18 12 18 14 8 14 10 18 18 13 12 13 15 15 11 12 11 10 11
12 17 18 14 12 12 13 14 13 10 5 4 4 3 8 8 11 12 14 12 16 11 9 18 18 15 17 15 14 9 17 7 19 14 -1 2 6 7 6 6 6 8 5
12 18 17 13 13 13 13 11 8 6 6 5 3 7 10 8 9 13 11 14 10 14 14 3 11 18 17 18 18 12 16 16 4 9 15 12 13 12 11 11 10 7 7
17 18 15 12 11 8 4 3 3 3 5 7 11 14 11 11 9 8 14 14 10 11 10 17 6 5 22 17 18 11 9 11 18 14 11 11 8 9 10 8 8 8 10
18 13 9 7 5 3 3 4 6 10 16 11 11 11 11 9 12 12 12 16 14 9 11 8 12 11 6 24 5 39 2 15 12 11 8 7 9 8 7 9 10 6 2
9 6 4 5 11 14 13 11 8 6 9 10 11 12 16 22 21 19 20 23 21 14 10 10 7 10 12 6 27 -3 18 5 13 16 16 12 9 9 8 10 12 6 5
3 7 13 4 5 11 14 16 18 17 17 16 18 21 20 22 21 23 24 22 21 22 16 10 10 8 8 13 9 20 8 9 1 16 12 2 8 8 9 12 6 9 7
13 6 7 13 23 25 23 23 23 23 23 22 22 19 19 23 20 20 13 14 15 19 23 19 11 9 9 7 13 11 5 34 15 -4 3 13 11 12 13 12 10 8 8
7 9 14 19 19 20 23 24 24 22 23 22 20 20 10 17 24 15 10 12 14 14 17 21 21 12 10 11 8 12 11 6 22 18 2 3 10 9 11 8 6 9 9
9 15 19 18 21 23 24 25 22 22 23 18 13 18 20 16 16 34 35 15 15 21 21 20 18 21 13 10 12 10 10 11 9 8 15 13 9 8 5 9 12 14 11
16 18 19 23 23 21 23 25 21 21 22 6 20 15 9 15 19 18 16 19 19 21 21 22 21 17 18 14 11 14 10 9 12 12 13 14 11 14 12 10 15 5 16
19 20 24 25 24 23 25 24 22 21 6 15 13 15 24 13 9 19 23 25 28 27 18 17 15 17 20 20 15 9 14 11 13 10 12 9 5 8 7 9 6 38 3
22 24 25 27 26 25 26 24 17 9 15 10 17 18 5 9 13 19 31 28 20 16 20 18 19 19 17 21 25 20 14 10 11 16 13 16 11 9 3 24 32 14 9
27 23 23 28 26 26 28 17 19 12 12 11 25 6 13 17 18 22 27 15 8 10 10 16 25 28 24 19 21 29 29 15 12 6 8 10 17 18 24 22 -2 5 -1
23 19 24 26 28 27 28 13 4 14 18 24 0 8 12 19 23 17 16 16 23 25 33 19 18 26 28 41 39 26 28 29 25 21 22 23 21 16 16 8 6 6 9
16 19 27 25 29 25 20 14 7 8 18 10 1 15 14 19 24 16 28 12 7 -1 -8 22 30 18 4 32 22 22 19 19 21 14 1 -4 8 15 14 19 15 2 4
13 23 31 20 27 19 17 13 13 14 15 6 10 10 15 22 14 -5 -3 15 23 23 19 14 18 19 10 18 -2 10 4 10 14 7 14 19 20 3 8 8 5 6 9
14 25 16 19 18 18 17 11 13 11 21 7 10 10 17 11 12 22 19 16 16 17 13 31 29 12 9 16 2 -1 16 18 8 6 8 3 15 13 7 4 5 5 8
18 15 21 16 14 16 16 11 14 11 20 8 13 14 13 17 19 17 12 10 10 4 10 7 15 18 32 22 23 25 9 7 11 12 7 10 12 10 6 11 17 18 18
15 17 20 10 13 17 16 12 17 13 22 5 14 13 12 18 22 13 11 1 4 4 3 1 7 6 6 9 7 8 8 8 6 4 4 4 3 8 10 15 8 5 10
13 16 16 13 9 15 16 10 17 14 26 3 15 11 11 20 18 13 13 3 10 11 -1 5 16 -1 10 9 5 7 6 6 6 5 5 6 9 12 11 6 11 12 10
15 13 18 19 12 5 16 8 16 15 29 3 15 11 10 20 16 19 10 9 2 11 5 3 19 13 -1 11 7 7 5 5 5 8 10 12 10 5 7 13 11 10 13
12 8 8 17 16 15 8 11 14 16 28 5 16 10 11 15 15 20 17 12 11 6 6 8 12 2 6 18 9 7 4 4 9 8 5 5 8 13 13 10 12 13 14
17 8 0 11 16 15 12 14 12 16 24 8 13 12 12 12 12 19 16 18 17 17 20 19 14 11 13 15 8 4 2 4 5 7 12 15 14 10 11 13 12 11 9
Height
5549 5538 5527 5518 5511 5505 5501 5497 5493 5489 5485 5482 5478 5476 5474 5473 5472 5473 5474 5477 5481 5485 5491 5497 5503 5508 5515 5522 5529 5538 5547 5557 5566 5575 5582 5588 5596 5603 5610 5615 5621 5627 5632
5536 5525 5516 5508 5501 5496 5491 5488 5484 5481 5478 5475 5472 5469 5467 5466 5464 5465 5466 5468 5471 5475 5478 5484 5491 5495 5502 5508 5516 5524 5532 5542 5552 5561 5569 5577 5585 5591 5598 5603 5609 5615 5620
5523 5514 5506 5498 5492 5487 5482 5478 5475 5472 5469 5467 5465 5462 5460 5458 5457 5456 5457 5459 5462 5465 5468 5472 5477 5482 5489 5496 5503 5510 5518 5526 5536 5547 5557 5565 5572 5579 5585 5592 5599 5604 5608
5511 5502 5495 5489 5483 5478 5473 5469 5465 5462 5459 5457 5454 5452 5450 5448 5447 5447 5447 5449 5452 5455 5457 5461 5465 5470 5476 5482 5489 5497 5506 5514 5522 5533 5543 5552 5560 5568 5575 5581 5587 5592 5598
5500 5491 5485 5479 5473 5468 5463 5459 5455 5452 5448 5445 5443 5441 5439 5437 5435 5435 5436 5438 5440 5443 5447 5450 5454 5459 5464 5470 5478 5486 5493 5503 5512 5521 5532 5541 5550 5557 5564 5569 5576 5581 5587
5489 5482 5475 5469 5464 5458 5453 5448 5443 5439 5435 5431 5429 5427 5425 5423 5421 5421 5422 5424 5427 5430 5434 5438 5444 5449 5453 5459 5466 5474 5484 5492 5501 5509 5519 5530 5539 5545 5552 5558 5565 5571 5578
5479 5471 5465 5459 5453 5447 5440 5434 5428 5424 5419 5415 5412 5410 5409 5406 5405 5405 5406 5409 5412 5417 5421 5425 5431 5437 5443 5449 5455 5463 5472 5482 5491 5499 5509 5519 5527 5533 5540 5547 5555 5561 5565
5468 5461 5453 5446 5439 5432 5424 5417 5412 5406 5402 5398 5395 5392 5390 5387 5387 5387 5388 5391 5396 5401 5406 5411 5418 5425 5432 5439 5445 5453 5462 5472 5481 5490 5499 5508 5515 5522 5529 5536 5544 5550 5555
5456 5447 5439 5430 5422 5413 5405 5398 5392 5388 5382 5379 5376 5374 5373 5370 5369 5371 5373 5376 5380 5385 5391 5398 5405 5412 5420 5427 5436 5443 5451 5461 5470 5479 5488 5496 5504 5511 5519 5527 5535 5540 5545
5443 5433 5423 5412 5402 5393 5385 5378 5373 5368 5365 5362 5360 5358 5357 5357 5356 5358 5360 5364 5368 5372 5378 5384 5392 5400 5407 5415 5425 5433 5441 5450 5458 5468 5477 5486 5494 5502 5510 5517 5523 5530 5536
5428 5417 5406 5394 5384 5375 5369 5361 5357 5353 5351 5349 5349 5346 5346 5346 5344 5345 5348 5352 5356 5360 5364 5371 5378 5386 5394 5403 5413 5422 5432 5439 5447 5456 5466 5475 5484 5493 5501 5509 5515 5521 5525
5414 5401 5390 5378 5367 5360 5354 5349 5344 5342 5341 5340 5340 5338 5336 5336 5335 5333 5335 5339 5344 5348 5352 5358 5365 5373 5382 5393 5403 5413 5422 5430 5439 5449 5458 5467 5476 5485 5493 5499 5505 5511 5515
5399 5386 5374 5363 5353 5346 5341 5338 5335 5334 5334 5333 5333 5332 5330 5329 5328 5328 5329 5331 5334 5338 5342 5347 5355 5363 5372 5383 5393 5402 5411 5422 5432 5441 5451 5460 5469 5477 5484 5491 5497 5502 5505
5384 5371 5360 5350 5342 5335 5331 5330 5328 5328 5328 5328 5328 5327 5326 5325 5324 5323 5322 5323 5327 5331 5335 5340 5347 5355 5363 5371 5381 5391 5402 5414 5424 5434 5443 5452 5461 5469 5476 5482 5488 5493 5497
5370 5359 5348 5338 5331 5327 5324 5324 5323 5325 5325 5324 5323 5324 5323 5322 5320 5319 5318 5320 5323 5328 5332 5337 5343 5350 5356 5363 5372 5382 5394 5404 5416 5427 5437 5445 5454 5461 5468 5474 5480 5486 5492
5360 5349 5338 5330 5324 5321 5320 5318 5320 5322 5321 5321 5321 5322 5321 5320 5319 5318 5317 5319 5323 5327 5331 5335 5339 5344 5350 5357 5365 5375 5385 5398 5410 5420 5430 5439 5447 5454 5461 5468 5474 5481 5486
5349 5341 5332 5324 5319 5317 5316 5317 5318 5319 5319 5319 5320 5320 5320 5319 5319 5319 5319 5321 5323 5327 5332 5337 5341 5345 5349 5354 5361 5371 5382 5393 5405 5416 5426 5435 5442 5449 5456 5463 5470 5475 5481
5345 5336 5328 5321 5318 5315 5315 5317 5318 5318 5318 5319 5320 5320 5320 5319 5320 5321 5323 5325 5329 5332 5336 5339 5343 5348 5354 5359 5365 5374 5383 5394 5405 5414 5423 5432 5439 5445 5452 5458 5465 5471 5476
5343 5335 5328 5322 5318 5317 5316 5317 5318 5318 5318 5319 5320 5320 5320 5321 5323 5325 5327 5329 5332 5334 5338 5342 5346 5352 5358 5364 5371 5379 5388 5398 5407 5415 5423 5430 5436 5443 5449 5455 5461 5466 5470
5341 5334 5329 5324 5321 5319 5318 5318 5318 5318 5318 5319 5321 5321 5322 5324 5326 5328 5330 5332 5336 5339 5342 5346 5351 5357 5363 5370 5377 5384 5391 5399 5408 5416 5423 5429 5435 5441 5447 5453 5457 5461 5465
5341 5335 5330 5326 5323 5321 5319 5319 5318 5318 5318 5320 5321 5322 5323 5325 5327 5331 5334 5337 5341 5345 5349 5354 5358 5363 5368 5374 5380 5387 5395 5402 5410 5417 5423 5428 5434 5439 5444 5448 5452 5455 5459
5341 5336 5331 5328 5325 5322 5321 5320 5319 5318 5318 5320 5322 5323 5325 5327 5330 5333 5337 5341 5346 5350 5355 5360 5365 5370 5375 5379 5385 5392 5399 5405 5411 5417 5422 5427 5432 5436 5440 5444 5447 5451 5454
5340 5336 5331 5328 5326 5323 5321 5321 5319 5319 5319 5321 5322 5324 5325 5328 5331 5336 5340 5344 5349 5354 5359 5363 5368 5373 5378 5383 5389 5394 5400 5406 5411 5416 5421 5425 5429 5433 5437 5440 5443 5446 5449
5339 5335 5331 5328 5326 5324 5322 5321 5320 5319 5320 5322 5323 5325 5328 5330 5333 5337 5341 5346 5351 5356 5361 5366 5370 5375 5380 5385 5390 5395 5400 5405 5410 5415 5419 5423 5426 5430 5433 5436 5439 5442 5446
5337 5334 5331 5327 5325 5323 5322 5321 5320 5320 5320 5322 5324 5326 5328 5331 5334 5337 5341 5346 5351 5356 5361 5366 5371 5376 5380 5385 5391 5396 5400 5405 5409 5413 5416 5420 5423 5426 5429 5432 5435 5438 5442
5334 5332 5329 5327 5324 5322 5321 5320 5320 5320 5320 5322 5324 5326 5329 5331 5334 5338 5342 5346 5350 5355 5360 5365 5370 5376 5381 5386 5390 5395 5399 5403 5407 5410 5413 5416 5419 5422 5425 5428 5432 5435 5438